Theta_e
335 335 335 334 336 336 335 335 334 333 333 332 332 331 331 331 330 331 330 330 330 329 328 328 327 328 328 328 330 331 331 332 332 332 331 332 331 330 331 331 328 328 329 330 330 334 335 334 334 335 334 331 329 328 325 326 325 323 322 319 317 320 318 317 313 314 319 321 318 315 314 314 312 314 313 315 314 312 313 317 313 312 312 314 309
333 334 334 334 335 336 336 336 334 333 333 332 331 331 331 331 332 330 330 330 329 327 327 328 327 327 327 327 328 328 329 330 331 331 329 329 330 330 329 327 326 326 328 327 331 333 336 334 333 335 334 330 329 324 323 322 321 319 319 319 317 317 320 315 314 314 314 320 318 317 315 315 312 315 315 315 316 314 312 316 317 314 313 316 314
332 333 333 334 335 336 336 335 333 333 332 331 331 329 330 331 330 330 329 329 329 328 327 325 326 327 326 327 326 327 327 328 329 328 327 326 324 325 326 326 326 326 326 325 323 326 327 329 332 334 334 333 331 326 324 322 320 317 318 318 318 318 316 317 316 315 315 314 318 316 317 316 316 314 314 316 317 316 314 314 316 316 316 317 317
331 332 332 334 335 335 334 333 333 331 330 330 330 331 331 330 330 330 329 328 326 328 326 324 325 327 326 326 326 325 326 327 327 325 324 323 322 322 325 326 325 325 323 322 320 322 324 324 326 332 334 334 332 326 326 324 321 319 319 320 321 318 321 320 319 318 316 314 315 314 316 316 314 316 315 316 316 316 316 316 316 316 316 316 317
330 330 331 332 333 333 333 332 331 330 330 329 331 331 331 330 330 329 329 327 326 325 324 324 324 325 326 324 323 324 325 325 325 326 327 326 323 322 322 323 325 324 324 323 324 323 323 324 324 327 330 332 333 329 326 325 321 321 319 318 318 320 321 320 320 318 318 316 316 316 317 316 316 317 317 314 314 316 316 315 315 315 316 316 316
329 329 329 329 329 331 332 332 331 330 330 331 331 330 330 329 329 329 326 325 325 324 323 322 321 322 323 323 323 323 323 324 324 324 325 326 326 325 323 323 322 322 322 321 322 324 324 324 327 327 327 326 326 328 327 328 323 322 321 319 319 320 321 321 321 320 318 316 317 316 317 315 316 316 317 317 315 314 314 314 315 316 315 315 316
327 327 327 328 328 329 330 330 330 331 331 331 331 329 329 329 328 325 325 324 323 322 320 320 321 322 322 323 322 322 322 322 323 324 323 324 325 325 325 324 323 323 322 322 322 322 323 323 326 327 326 326 327 328 329 329 326 324 322 322 320 320 320 319 318 318 318 318 317 318 317 317 317 314 316 317 316 315 314 313 313 314 315 316 316
326 326 326 326 325 325 327 328 328 327 327 327 327 328 328 327 325 324 323 322 320 319 319 320 322 322 322 322 322 322 320 320 321 322 322 323 323 324 325 325 324 324 324 323 323 322 323 323 324 324 324 325 326 327 328 325 324 324 323 323 322 321 320 319 319 318 317 318 315 315 316 316 316 317 317 316 314 313 314 314 313 314 315 316 317
323 324 325 323 322 323 325 327 327 326 325 325 325 325 325 325 324 323 322 322 322 321 321 319 319 319 320 321 320 322 325 326 321 319 322 320 320 321 323 324 324 324 323 322 323 322 321 323 323 325 333 319 307 313 315 316 328 321 323 323 323 322 321 320 319 317 317 316 316 317 316 314 315 316 315 314 313 313 316 316 315 315 315 316 317
321 321 320 320 321 321 323 325 325 324 323 323 323 324 324 324 324 323 323 322 323 323 322 321 320 319 319 322 324 326 324 320 303 296 298 319 322 318 320 323 323 323 321 321 322 322 321 323 327 314 312 311 308 304 303 305 307 321 327 326 322 321 321 319 318 318 317 315 315 315 314 314 315 316 316 317 318 318 316 316 313 314 315 316 318
318 318 318 319 320 318 317 318 319 319 320 321 321 322 322 323 324 325 325 325 325 324 324 323 323 322 321 323 322 321 318 307 294 292 294 294 319 324 322 322 322 322 322 323 322 322 323 321 325 323 321 316 319 299 301 300 301 300 301 303 309 330 323 318 319 320 316 316 316 316 315 315 316 317 317 316 318 317 316 317 316 315 314 312 311
313 314 314 314 314 313 314 315 315 315 316 316 316 316 316 318 319 320 321 323 326 327 325 324 324 325 324 322 320 317 310 296 292 294 293 292 296 322 323 323 322 324 324 322 322 322 322 323 324 325 324 329 326 327 314 300 298 299 298 298 299 298 299 320 322 319 319 317 315 316 317 316 316 318 317 318 317 317 317 317 316 315 314 312 313
309 309 309 309 309 310 310 310 311 312 313 313 313 312 312 313 314 315 317 320 323 323 324 323 321 320 318 315 313 310 307 293 293 293 294 293 294 304 323 322 321 322 322 321 323 323 325 324 325 325 321 316 317 321 323 326 302 294 299 298 297 297 298 296 297 319 324 320 319 317 318 318 317 317 320 320 322 318 317 315 316 315 315 313 314
306 306 306 307 308 308 309 309 309 309 310 310 311 310 309 309 310 313 315 317 318 318 318 317 316 315 313 311 308 306 303 294 292 292 293 292 293 299 325 324 324 324 323 323 324 324 323 323 322 323 326 326 324 324 324 323 327 325 322 322 322 317 298 296 296 295 303 320 321 320 322 323 319 321 322 323 321 319 318 316 318 317 317 316 320
302 304 305 307 308 307 306 306 307 308 308 308 308 307 307 307 309 311 312 313 313 314 314 314 314 314 313 310 308 305 302 291 291 291 292 293 292 299 328 328 326 326 327 328 328 328 327 328 327 325 325 325 327 321 326 325 325 325 325 324 324 323 325 325 323 322 321 321 321 322 323 324 326 327 326 327 325 323 322 322 322 321 321 322 320
302 303 303 304 305 306 306 307 306 306 305 305 305 305 306 307 307 307 308 309 310 310 312 312 312 312 313 312 309 306 302 291 291 291 291 292 294 320 324 325 325 326 327 328 328 329 329 329 328 328 328 327 306 299 304 318 324 325 323 324 323 324 325 319 315 315 325 329 326 325 327 326 304 328 332 327 325 324 323 323 323 321 319 316 313
300 301 301 302 303 304 305 304 304 304 306 305 305 305 306 307 306 306 305 305 304 305 307 308 309 308 309 310 309 306 304 294 290 291 291 290 302 318 319 320 321 321 322 322 324 325 326 321 323 326 327 319 295 294 295 297 323 324 324 324 324 323 322 330 305 298 298 296 294 292 291 293 296 297 299 302 319 320 323 319 317 319 317 313 314
299 300 300 301 302 303 303 303 304 304 303 303 305 306 307 306 306 306 305 303 303 303 304 305 306 306 305 306 307 307 304 295 290 291 291 290 297 314 314 316 317 317 318 319 320 321 319 307 316 320 323 317 292 293 291 303 321 324 326 324 325 325 325 328 324 316 295 294 295 294 294 295 294 292 294 296 298 306 321 316 319 319 317 315 312
299 299 300 301 301 301 303 303 304 303 303 302 303 303 303 303 304 306 304 304 304 304 304 303 303 304 305 304 302 306 306 300 291 291 291 291 298 311 310 311 312 313 313 313 316 317 319 314 304 307 310 301 291 292 291 300 318 323 322 321 323 319 323 326 326 325 319 316 315 314 310 302 308 314 314 297 296 302 320 320 321 319 315 315 314
299 300 300 301 302 302 302 300 301 302 302 302 302 302 302 302 303 303 302 303 302 304 304 303 302 302 304 304 304 305 305 305 297 290 290 292 291 303 310 308 309 309 310 309 309 312 313 316 303 292 292 291 292 290 292 290 306 316 320 321 322 322 325 324 325 325 326 324 323 322 320 321 319 318 320 317 311 312 317 320 320 319 318 316 315
298 298 299 300 300 300 302 301 301 302 302 301 302 302 303 303 304 304 303 304 304 303 303 303 302 302 302 302 302 302 301 303 301 290 291 291 290 294 308 308 306 306 306 306 308 309 309 310 313 293 290 290 291 290 291 291 291 305 312 315 320 313 304 319 322 309 321 321 321 321 322 322 322 322 320 321 318 316 315 316 319 319 319 317 314
298 298 298 298 298 298 299 300 301 302 302 302 302 303 302 303 303 304 304 305 304 304 304 304 305 304 303 302 302 302 300 297 302 293 290 291 290 290 302 304 299 302 303 306 307 307 308 308 309 297 290 291 291 290 290 291 291 300 307 299 296 295 310 311 316 319 319 318 319 318 319 318 318 318 318 318 317 316 316 316 317 319 320 319 314
299 299 299 299 299 299 300 301 301 302 302 302 302 302 302 303 304 304 304 304 303 304 305 304 305 305 305 305 303 303 303 301 294 299 291 290 289 290 288 295 290 299 303 303 304 304 305 305 304 293 291 290 290 290 291 291 291 299 295 294 294 293 296 309 310 313 314 315 315 315 314 315 315 314 314 315 316 316 315 316 318 318 317 314 313
298 298 298 299 300 300 300 300 301 301 302 302 301 301 302 302 302 303 303 303 302 302 302 303 303 303 303 303 305 305 306 306 296 292 296 290 290 290 289 289 289 297 299 299 302 303 303 303 300 292 290 290 289 289 290 290 295 293 291 291 291 292 302 305 307 308 308 310 311 312 313 313 314 314 314 316 316 316 316 316 315 314 312 311 309
300 299 299 299 299 300 300 300 300 300 301 302 301 301 301 302 302 302 302 302 301 301 301 301 301 300 301 302 302 303 304 303 304 297 291 292 290 289 289 288 289 289 298 302 303 303 297 291 290 290 290 290 289 288 289 289 288 290 290 290 292 303 305 307 308 309 308 308 309 311 312 313 314 314 315 316 315 314 312 310 310 310 309 308 306
300 300 301 301 301 301 301 300 300 300 300 299 299 299 299 300 300 301 300 300 299 299 298 298 297 298 298 300 299 301 301 303 303 304 299 297 295 289 289 290 290 290 293 300 293 291 290 290 289 289 289 292 299 304 304 305 293 289 289 291 304 305 307 308 309 308 307 307 307 308 310 311 312 313 314 314 310 308 308 307 306 304 304 302 301
300 301 301 301 301 300 300 301 301 301 302 301 301 301 301 300 300 299 299 299 299 298 299 299 299 299 299 299 299 300 302 302 303 303 302 301 302 301 302 301 293 293 299 303 297 300 300 297 298 294 294 291 291 292 294 296 300 304 306 305 306 308 309 308 308 308 308 309 308 309 309 311 313 312 310 309 308 308 308 305 304 302 302 302 300
300 300 300 300 301 301 300 293 297 300 300 301 300 300 301 302 300 299 300 300 300 300 300 299 299 300 300 300 301 301 301 302 302 300 299 299 299 300 301 301 303 302 302 301 300 300 300 295 297 303 305 306 307 307 306 306 304 303 306 307 307 309 304 300 300 307 309 310 311 311 312 311 309 310 309 307 306 305 305 302 302 300 300 300 297
300 300 300 301 300 300 300 300 299 300 300 300 299 299 299 300 301 301 300 300 298 299 300 300 299 300 300 300 300 300 300 301 300 290 294 289 291 295 297 298 299 299 296 289 294 299 301 300 300 301 301 298 299 301 302 303 302 303 305 306 307 307 307 307 305 305 306 307 307 308 305 309 308 308 306 305 304 303 304 303 302 300 300 302 299
300 300 300 299 300 299 300 299 299 299 300 300 300 298 290 290 294 299 299 291 288 287 288 296 296 298 299 300 301 298 298 299 290 288 289 289 289 288 288 288 288 291 290 287 290 295 296 298 299 299 299 299 299 298 299 300 299 299 299 297 302 304 304 304 305 305 304 303 303 304 303 302 302 301 302 302 301 301 300 297 301 299 297 297 297
299 299 298 297 296 299 299 299 299 299 299 300 300 296 299 296 288 288 289 289 289 288 288 288 287 287 293 297 298 292 290 289 288 289 288 288 288 288 288 288 288 288 288 290 294 296 297 296 297 298 298 299 297 297 299 298 298 299 298 300 300 301 299 302 303 301 300 300 300 301 301 300 299 299 299 298 298 297 296 296 296 296 295 296 296
298 298 298 298 297 298 299 299 299 299 299 299 299 299 299 298 297 290 289 290 290 288 288 288 288 288 288 290 293 299 294 290 288 288 288 288 288 288 287 287 287 287 287 287 292 296 297 297 297 297 298 298 298 298 299 298 299 299 299 298 299 300 299 300 300 302 301 300 300 299 299 298 298 295 294 294 293 294 294 292 293 293 294 295 296
299 299 298 298 298 297 297 299 299 299 299 298 299 299 298 297 297 297 293 289 289 290 289 289 289 288 288 288 288 288 288 288 287 288 288 288 287 287 287 286 287 286 285 291 295 297 298 297 298 299 298 297 298 298 297 299 299 299 298 298 298 299 301 301 298 301 299 298 297 298 298 297 295 293 292 291 291 291 291 291 293 294 294 291 289
300 299 300 298 299 299 299 299 298 298 298 298 298 298 298 298 297 297 297 297 295 291 288 288 289 289 288 288 288 288 288 288 288 288 287 288 287 287 287 290 288 286 289 296 295 296 297 297 297 298 298 298 298 298 297 297 297 298 298 299 300 301 301 302 301 299 298 298 298 297 295 295 292 292 292 292 292 292 291 290 291 291 291 291 289
300 293 287 292 299 298 298 298 298 298 298 298 297 297 298 297 297 297 297 297 297 297 297 296 290 289 293 292 290 288 288 288 288 288 288 288 288 288 286 295 296 295 298 301 299 299 297 297 297 297 297 297 297 297 297 298 298 298 297 296 299 299 299 298 297 298 298 297 297 296 294 293 293 292 292 291 291 291 291 290 290 292 292 291 290
299 299 299 297 298 298 298 298 298 298 298 298 298 297 297 296 296 297 296 296 297 297 297 298 299 290 288 290 289 289 288 288 288 288 288 288 289 289 296 297 296 297 297 299 299 298 297 298 297 298 298 298 299 297 299 297 298 297 299 298 296 297 296 297 295 295 294 294 293 292 292 292 292 290 291 291 290 290 290 290 290 290 291 291 291
299 298 299 299 298 298 299 298 298 297 293 295 297 297 297 297 296 297 297 297 295 297 298 298 298 299 296 296 293 291 290 289 289 289 288 289 289 295 298 296 297 297 297 298 298 297 297 298 298 298 298 297 297 298 297 297 297 297 295 297 298 297 294 294 293 292 293 292 291 290 289 290 290 290 290 289 289 289 289 289 289 289 289 289 289
299 299 299 299 299 299 298 299 296 290 295 297 297 297 297 298 297 296 296 295 294 294 297 296 293 296 294 295 296 295 294 292 288 289 291 292 294 295 296 296 296 296 295 297 297 296 296 297 297 297 297 297 297 297 295 295 296 295 296 296 294 294 290 292 290 290 289 290 290 290 290 290 290 290 289 289 289 289 289 289 289 288 288 288 289
300 290 287 288 291 298 298 297 296 296 298 297 297 296 293 295 296 295 296 295 295 294 294 296 295 294 294 295 295 295 295 295 294 294 293 294 294 296 297 297 297 295 296 296 296 294 295 295 295 296 296 296 295 296 295 294 296 295 294 295 293 293 292 291 290 289 289 289 289 289 289 289 289 290 290 289 288 288 288 288 288 288 288 288 289
298 298 294 287 296 296 296 295 296 296 296 297 297 296 295 294 294 294 295 294 294 293 294 292 294 295 294 293 292 293 294 292 293 292 293 293 294 295 296 294 293 294 294 294 294 294 294 294 295 295 295 295 295 295 295 294 293 293 293 293 292 290 290 290 289 289 287 287 288 288 288 288 289 289 290 289 289 289 288 288 288 288 289 289 289
298 298 293 292 292 296 296 295 296 296 296 295 296 297 296 293 295 294 293 294 292 293 293 294 294 295 292 289 286 286 293 293 293 292 293 292 291 291 292 293 292 293 293 292 292 293 293 294 293 292 293 293 294 293 294 293 293 291 291 290 291 291 291 290 289 288 288 288 288 287 287 287 288 289 288 288 288 289 289 289 289 289 289 289 289
298 298 298 296 296 296 296 295 296 293 295 296 296 296 294 294 293 292 293 292 292 292 292 294 294 295 289 285 288 286 292 294 294 293 294 293 291 291 291 291 292 291 290 291 292 291 291 291 291 292 291 291 292 292 293 292 291 291 291 290 290 290 291 291 290 288 288 288 287 287 287 288 288 289 288 288 289 290 289 290 290 290 290 290 289
299 298 297 296 297 296 296 296 296 297 296 296 294 292 293 294 294 293 293 294 292 292 293 292 293 294 293 288 289 288 293 293 290 293 293 292 291 290 290 289 290 291 291 291 291 291 291 291 290 291 291 291 292 292 292 291 291 292 292 292 292 291 291 292 291 289 289 288 288 287 288 288 288 289 289 289 289 289 289 289 289 289 289 289 289
297 297 297 295 296 296 297 297 297 295 295 292 294 294 293 294 293 293 292 292 292 292 293 293 293 293 292 292 291 292 293 293 292 292 290 289 289 289 289 290 289 289 289 289 290 290 290 290 290 291 291 291 291 290 291 292 292 292 292 292 291 290 290 290 290 290 290 290 289 289 289 289 289 289 288 288 289 288 289 289 289 289 289 289 289
299 298 296 296 296 297 297 296 295 296 292 292 294 294 293 294 293 292 293 292 293 293 292 292 292 292 292 293 293 292 293 292 290 290 289 289 289 289 289 288 288 287 288 289 289 288 289 289 288 288 288 289 289 289 290 291 293 293 293 293 292 291 290 290 291 291 291 290 290 290 290 290 289 290 290 290 289 289 289 289 289 288 288 289 289
297 297 296 295 295 294 295 296 294 296 295 294 293 294 294 294 293 293 292 292 293 293 292 293 293 292 292 292 292 291 292 292 292 291 290 289 289 289 289 288 288 288 288 288 290 290 289 289 289 288 288 288 288 290 291 291 292 293 295 294 293 293 293 292 292 292 291 291 291 291 291 290 290 289 289 290 290 290 290 289 289 289 289 288 288
299 297 296 296 295 294 294 296 295 295 295 294 294 294 293 294 294 292 291 293 292 293 293 293 293 292 291 292 292 291 291 291 291 291 291 290 290 290 288 288 288 288 288 288 288 290 289 289 289 289 289 290 291 291 293 294 294 295 294 294 294 293 293 292 292 291 292 291 291 292 291 291 290 290 290 290 290 289 289 289 289 288 288 288 288
297 296 296 295 295 295 295 295 293 291 294 293 294 293 292 292 293 293 293 293 293 293 293 293 293 293 292 292 293 292 291 291 292 292 292 292 291 291 289 289 288 289 288 288 288 288 288 288 288 288 289 289 289 290 292 293 294 293 293 291 290 289 288 288 292 292 292 292 292 291 291 291 291 290 290 290 290 290 289 289 289 289 289 289 289
297 296 296 295 295 296 295 294 295 294 294 294 292 292 292 293 292 293 293 293 293 293 293 293 293 293 293 292 293 292 292 291 292 292 292 292 292 291 291 290 288 289 289 289 288 288 288 288 287 288 288 290 289 290 290 290 292 291 291 289 286 283 284 285 289 290 290 291 292 290 291 291 290 290 290 290 290 290 290 290 289 289 289 289 289
297 296 296 295 295 295 294 296 295 295 295 294 294 293 292 293 293 293 293 293 293 293 294 293 293 293 293 292 292 293 293 292 292 293 292 292 292 291 290 289 289 289 289 288 289 289 289 289 288 288 288 289 289 289 290 290 289 289 288 286 283 283 284 285 286 286 290 292 292 292 291 291 291 291 291 290 290 289 289 289 289 289 289 289 289
296 296 296 296 295 295 296 295 295 295 295 295 293 293 291 292 293 293 292 292 293 293 293 294 294 293 293 293 292 292 293 293 293 293 293 292 291 290 290 289 289 289 289 288 289 289 289 289 289 289 289 289 289 290 290 289 287 284 283 282 282 282 283 284 288 287 285 288 292 292 292 290 290 290 290 290 290 290 289 289 289 289 290 289 289
Wind_Speed
12 11 10 10 11 11 10 9 9 9 9 10 9 8 7 7 6 5 5 4 4 4 4 3 2 3 4 4 5 5 5 5 4 4 5 5 5 5 5 6 6 5 5 5 5 6 7 7 8 7 7 7 8 7 8 8 7 6 6 5 5 5 4 4 7 7 5 3 5 5 8 9 9 10 9 8 9 9 9 8 9 8 9 8 9
11 10 9 9 10 9 10 9 9 8 9 9 9 9 8 7 6 6 5 5 4 4 4 2 2 4 4 4 5 5 5 5 5 4 5 5 5 3 4 5 5 5 4 6 6 4 5 6 7 7 7 7 8 9 8 8 8 8 7 6 6 6 4 4 4 7 7 5 5 6 7 9 8 9 9 9 9 10 11 8 8 9 9 7 8
11 9 8 8 9 9 9 9 9 9 9 8 9 9 8 7 7 6 6 5 4 4 4 4 4 4 4 4 5 4 4 4 4 4 4 4 4 4 3 4 4 5 6 6 6 5 5 4 6 6 5 6 7 7 8 8 8 7 8 6 6 6 6 4 4 6 7 7 6 6 7 8 8 9 10 9 9 10 11 10 9 8 8 7 7
10 9 8 9 9 9 9 9 9 9 9 8 10 9 8 7 7 6 6 5 5 4 4 4 4 4 5 4 4 4 5 5 5 5 5 5 5 5 4 4 5 6 6 6 6 5 4 5 5 6 6 7 7 7 7 6 6 6 7 6 5 6 4 4 3 3 6 6 8 7 7 7 9 8 9 8 9 10 9 9 9 9 8 8 8
10 10 9 10 9 8 8 8 9 9 9 8 9 9 8 8 7 7 6 5 6 5 4 4 5 5 5 6 6 5 4 4 5 4 4 4 5 4 5 5 4 5 4 4 3 4 5 4 4 6 7 7 8 7 7 8 7 6 6 6 6 5 4 4 5 5 4 5 7 6 6 8 8 8 8 9 9 10 10 9 9 9 9 8 7
10 10 9 9 8 9 8 8 8 8 8 8 8 8 8 8 7 6 6 6 6 5 5 4 5 6 5 5 5 5 5 4 5 5 6 5 4 4 3 4 4 4 4 4 4 3 4 5 4 4 5 6 7 6 7 8 6 6 6 5 5 5 4 5 5 6 5 6 5 7 7 6 7 8 8 8 8 8 9 10 9 9 8 8 7
11 11 10 9 9 8 7 8 8 8 7 7 6 7 8 7 7 6 6 6 6 5 5 4 4 5 5 4 4 4 4 4 4 4 5 5 4 5 4 4 4 3 3 3 3 3 3 4 4 4 5 4 5 6 7 7 7 6 5 5 6 3 4 5 6 7 7 7 6 6 7 7 7 7 8 9 9 9 8 8 9 9 8 8 8
12 12 11 10 9 8 7 7 8 7 7 7 7 6 7 6 6 6 6 6 6 6 5 5 4 3 5 4 3 3 3 4 4 5 5 4 4 4 5 5 5 4 3 3 3 3 3 4 4 4 4 5 5 6 6 7 5 6 5 4 4 4 5 5 5 6 6 6 7 7 7 7 7 7 7 8 9 9 9 8 9 9 9 9 10
13 12 12 12 11 9 5 7 7 9 8 8 8 8 6 5 5 6 5 5 4 5 5 6 5 5 5 4 4 2 3 6 6 7 3 5 4 4 5 6 5 6 5 4 4 4 4 4 4 4 6 6 8 8 7 6 1 5 5 4 5 6 6 5 5 5 5 6 6 6 7 7 7 7 8 7 9 9 8 9 9 9 9 8 9
12 12 12 11 11 10 8 8 8 9 9 9 9 7 6 5 4 4 4 5 5 5 5 4 4 4 5 5 5 5 5 5 9 13 10 7 1 3 4 5 6 5 5 5 4 4 4 4 5 8 6 3 3 3 2 1 5 5 3 2 5 6 6 6 6 6 6 6 7 6 7 7 7 7 8 9 8 9 9 9 10 9 10 8 7
13 13 13 12 10 9 7 8 8 8 8 8 7 7 6 4 5 4 4 3 4 5 4 4 3 3 5 6 7 6 5 6 13 11 11 11 7 0 2 3 3 4 4 4 4 5 4 4 4 5 4 4 3 4 1 2 2 4 6 7 7 5 5 6 6 6 6 6 6 7 7 8 7 8 8 9 9 9 9 8 9 10 10 10 10
14 13 11 9 9 9 8 9 9 9 8 8 7 6 6 6 7 6 6 5 5 6 6 5 6 6 7 8 9 8 7 11 11 12 12 12 9 4 2 2 3 2 2 3 5 5 5 4 3 2 2 2 3 4 6 6 3 1 2 5 7 9 6 5 6 6 7 7 8 8 8 8 8 8 8 8 9 9 9 10 10 11 12 11 10
11 11 9 9 9 9 10 10 10 10 8 7 6 7 7 7 8 8 8 5 6 8 9 9 9 8 9 9 9 9 8 12 12 11 10 11 12 11 3 2 3 3 2 2 2 1 1 2 2 2 2 5 4 4 3 4 5 3 2 4 7 8 9 10 7 6 7 8 7 9 9 8 8 9 8 8 6 9 9 9 10 10 11 11 11
10 10 10 9 9 11 11 10 9 9 7 7 8 8 8 8 7 7 7 8 8 9 10 11 9 9 9 9 9 9 9 12 12 11 10 10 10 10 2 1 1 1 1 0 0 1 1 2 3 3 3 3 3 4 4 4 3 5 5 6 7 8 8 10 12 12 8 7 9 9 9 8 9 7 8 7 7 8 8 10 10 10 10 11 5
11 9 10 10 11 11 11 10 11 10 9 8 8 8 8 7 8 7 7 8 8 8 8 10 9 9 9 8 8 9 8 13 13 13 12 12 11 10 2 2 0 1 1 2 1 2 1 1 2 3 2 3 6 9 5 4 5 5 6 7 8 8 9 9 9 8 8 8 10 11 10 10 10 8 8 7 9 9 8 9 7 7 7 3 2
10 10 10 10 10 9 9 9 11 10 10 9 9 9 9 9 9 8 8 8 7 7 8 8 9 9 8 8 8 8 9 13 13 14 14 13 14 3 3 1 2 2 2 2 2 1 1 2 2 2 1 2 9 10 6 6 6 7 8 8 9 9 9 8 7 8 7 7 8 9 6 5 6 5 3 5 6 6 5 5 4 5 7 7 9
10 10 11 9 9 8 9 9 10 9 9 10 9 9 9 9 9 8 9 8 7 7 7 7 7 8 8 7 7 7 8 10 11 13 14 15 11 3 2 1 2 2 2 2 1 1 2 5 4 4 3 7 9 9 9 7 6 7 8 10 9 9 10 5 6 5 7 7 7 5 5 7 7 5 5 6 6 6 7 7 8 8 9 11 11
10 11 12 10 9 7 8 9 9 9 9 9 8 7 7 7 7 6 8 8 7 6 5 6 7 7 8 7 5 6 6 8 10 11 13 14 12 4 3 1 1 1 1 0 2 1 6 5 5 2 3 6 9 9 10 6 6 8 9 9 11 9 9 8 4 5 3 4 6 6 6 7 6 6 6 8 8 7 10 11 9 8 11 10 11
10 11 10 9 9 9 8 8 7 7 8 8 7 7 7 6 5 5 6 6 5 4 4 5 5 5 6 7 7 6 5 7 10 10 11 13 11 5 4 3 2 2 3 2 1 3 2 6 7 7 6 7 9 10 9 8 6 8 9 11 10 13 12 10 9 7 6 7 7 7 8 8 7 8 8 12 10 9 10 11 9 10 11 10 11
9 9 9 8 7 6 8 9 8 8 7 9 9 6 5 4 4 6 6 4 4 4 3 4 5 5 4 4 3 5 5 5 8 8 9 10 12 8 3 3 3 3 3 4 5 3 3 2 7 8 10 9 8 9 10 8 6 8 8 10 10 11 7 9 9 8 9 7 7 8 9 8 9 10 10 9 9 10 12 11 11 11 11 11 11
9 10 9 7 7 7 5 7 7 7 7 7 7 5 4 3 4 5 5 4 4 4 3 2 3 3 2 1 2 3 4 4 6 6 6 7 10 10 3 3 4 4 4 5 4 4 3 3 3 9 8 6 4 4 5 8 7 6 8 9 9 9 11 9 10 3 8 10 11 10 9 10 10 9 9 9 9 10 11 11 11 11 11 11 10
8 9 9 9 8 8 8 7 6 5 5 7 7 4 4 4 3 3 3 3 4 4 4 4 4 4 5 4 2 2 3 2 3 5 5 6 7 10 6 5 5 5 5 5 5 4 4 3 3 8 11 10 13 13 9 6 7 6 9 12 14 15 10 9 9 10 12 12 10 10 10 10 10 10 9 9 9 9 9 9 10 11 10 9 9
8 8 9 9 8 8 7 7 6 5 6 6 5 4 3 3 3 3 3 3 3 3 3 1 1 2 2 4 4 5 3 4 2 2 5 3 3 3 4 5 3 6 5 5 5 5 4 5 2 8 10 9 9 11 12 14 10 9 12 12 12 11 9 8 8 9 10 11 12 12 12 13 11 12 12 11 9 9 8 8 9 9 5 1 2
8 8 8 8 7 7 7 7 6 6 6 5 5 4 4 3 3 3 2 1 1 1 1 1 1 1 1 1 1 1 1 0 8 4 2 4 3 3 4 3 4 3 4 6 6 5 5 4 6 11 11 12 12 12 13 13 10 12 12 11 11 9 7 8 8 9 10 11 12 13 14 14 14 13 13 11 10 8 8 7 7 6 5 4 5
7 7 7 7 7 6 6 6 6 5 4 4 3 3 3 2 2 3 2 2 2 2 2 3 3 3 3 2 2 2 2 2 1 7 6 5 9 9 10 10 10 9 6 6 6 5 4 6 9 12 13 13 15 15 13 16 18 15 14 13 10 7 8 9 9 9 11 12 12 12 14 14 15 14 11 12 8 7 7 6 6 6 6 7 7
7 7 7 6 6 5 6 6 6 5 4 3 4 3 3 2 2 2 2 2 2 2 2 2 2 2 2 2 2 3 3 2 2 0 5 5 6 12 11 11 10 12 12 7 7 7 8 10 13 15 15 13 10 7 7 5 9 15 16 14 10 9 9 9 10 10 11 11 12 13 13 13 13 14 11 5 8 8 8 8 8 8 8 8 8
6 6 6 6 6 7 6 4 4 4 4 3 3 3 2 2 2 2 2 2 1 1 1 0 0 1 1 1 1 2 2 1 1 2 5 5 6 6 5 3 11 13 9 5 9 6 6 8 9 12 13 15 15 13 12 11 11 10 9 10 9 8 8 9 9 9 10 10 11 11 12 11 12 6 8 8 9 8 9 10 9 9 9 9 8
6 6 7 6 5 5 5 1 3 4 4 4 3 3 3 3 3 3 4 3 2 2 2 2 2 3 3 2 2 2 2 2 4 6 7 8 8 7 7 6 6 6 6 6 8 9 9 10 11 9 7 7 6 5 5 6 7 8 8 8 8 8 7 5 7 9 10 10 11 11 11 11 11 7 8 8 8 7 8 8 9 9 9 9 7
5 6 5 5 5 4 4 5 5 3 4 4 5 6 5 4 3 4 5 5 5 4 4 3 3 3 3 3 4 3 3 3 6 8 7 7 6 8 8 7 8 8 8 9 9 8 7 7 6 6 6 4 4 6 6 7 5 8 9 8 8 8 8 9 11 10 9 9 11 11 9 11 9 5 5 6 7 7 8 8 8 10 9 8 8
4 5 5 5 4 4 4 4 4 3 3 3 3 6 5 6 6 6 4 6 5 5 6 5 7 6 5 4 5 5 6 7 11 11 10 10 10 9 9 10 10 9 10 12 9 6 5 4 4 4 4 4 5 6 6 5 6 6 6 8 8 9 9 9 10 10 9 8 8 8 8 4 0 2 3 5 3 4 4 3 3 1 3 5 6
4 4 5 6 6 4 4 4 3 3 3 2 2 1 6 6 4 5 6 4 5 6 4 3 3 4 5 5 3 2 4 6 6 9 11 11 11 11 10 9 9 8 7 5 5 5 5 5 5 5 5 7 6 7 7 7 7 7 7 7 7 9 8 9 9 7 7 7 7 7 8 4 4 4 5 5 6 6 6 6 6 4 5 3 3
3 3 4 4 3 4 2 3 3 3 3 2 2 1 1 4 7 2 6 5 2 2 3 3 3 3 3 4 5 5 4 9 12 13 12 12 11 11 11 11 10 8 5 4 4 5 4 5 6 6 7 7 7 7 7 7 7 8 8 8 8 8 8 8 9 10 8 8 8 8 8 6 4 3 4 4 5 5 6 5 3 3 2 1 3
2 3 2 0 1 2 1 3 3 3 3 2 1 2 1 2 0 7 5 6 9 9 6 2 1 1 3 3 3 4 8 10 12 12 12 11 11 10 10 11 9 6 4 4 3 4 4 6 6 8 7 7 7 7 7 9 7 8 8 8 9 8 10 9 5 9 8 9 7 8 8 6 4 4 4 5 6 7 5 5 6 6 6 4 4
1 4 4 3 2 3 2 2 3 3 3 3 2 2 2 2 2 2 2 6 6 2 3 4 5 5 5 2 1 5 6 7 8 9 9 11 12 12 10 6 6 8 6 3 3 4 4 7 7 8 8 9 7 7 7 7 7 7 7 10 10 11 11 10 10 8 8 8 7 7 7 5 4 5 6 6 6 7 7 6 6 7 6 5 5
1 5 4 9 4 2 2 2 2 2 2 2 2 2 2 2 2 2 2 2 2 1 5 5 3 6 4 0 3 4 6 6 6 6 7 9 11 12 11 7 3 2 4 4 6 6 7 8 8 8 8 8 7 6 6 9 8 8 8 8 9 10 9 8 8 9 8 8 8 6 6 4 4 5 6 7 8 8 7 7 5 6 5 5 5
1 1 4 6 2 2 1 1 2 2 2 2 2 2 2 2 1 2 2 2 2 1 2 2 2 12 5 6 4 4 5 5 5 6 7 9 12 14 4 5 4 5 5 6 7 7 7 7 8 8 8 8 8 7 8 7 7 8 9 8 8 8 8 8 7 8 8 7 6 3 3 2 3 3 4 5 5 6 6 6 6 5 5 5 4
1 0 2 3 2 2 2 2 3 3 2 1 1 1 2 2 2 2 3 3 2 2 2 3 4 2 3 3 6 4 2 6 6 5 6 7 11 7 6 5 6 7 6 7 7 8 8 8 8 8 8 8 8 8 6 7 7 7 7 8 8 7 6 5 5 5 6 4 1 2 2 3 3 4 6 6 6 7 6 6 6 5 4 4 4
3 4 4 4 3 0 2 2 3 6 4 1 1 1 2 2 3 3 2 1 2 1 2 3 3 4 4 4 8 7 9 3 10 7 3 3 4 4 4 4 7 8 7 8 8 8 7 8 7 7 7 8 8 8 6 7 7 5 5 6 4 3 5 4 3 3 4 2 2 3 4 5 5 6 6 7 7 7 7 6 6 5 4 3 2
2 7 4 5 5 6 2 1 1 2 1 1 2 2 2 2 3 3 3 2 2 2 3 3 4 5 6 7 7 8 7 4 5 5 5 5 4 4 5 6 7 7 8 8 8 8 7 8 8 8 8 7 7 7 6 5 5 4 4 4 3 3 3 3 3 4 5 5 5 5 5 6 5 5 5 6 7 6 6 6 5 5 4 3 2
1 5 4 6 5 1 3 0 2 2 1 2 1 1 1 3 3 2 2 2 2 2 2 2 4 4 6 7 7 6 4 4 5 5 5 5 5 6 7 6 6 8 8 8 8 8 8 9 8 8 8 8 8 7 7 5 3 3 3 3 3 3 4 4 5 5 6 5 5 5 5 5 5 5 5 5 6 6 6 5 3 3 2 2 2
2 2 2 2 5 3 3 2 2 3 2 1 1 1 2 2 3 3 2 1 2 2 2 4 4 5 6 5 6 6 5 4 3 4 4 5 5 5 6 6 6 7 7 7 7 8 8 9 8 7 6 6 7 5 6 4 3 3 2 3 4 4 5 6 6 7 5 5 5 5 5 5 5 4 5 4 5 5 4 4 4 3 3 3 2
2 2 2 1 5 3 2 1 1 4 4 1 3 1 1 1 2 2 3 1 2 2 2 3 4 5 7 5 9 10 5 5 5 5 5 6 5 6 5 6 6 6 5 5 7 6 6 7 7 6 6 6 6 6 5 4 3 3 3 4 4 5 5 5 5 5 5 4 4 3 3 2 2 3 3 4 3 3 3 3 3 3 3 2 2
3 2 1 1 3 2 2 1 2 2 2 2 1 1 1 1 2 1 2 2 2 3 2 2 3 4 5 5 6 7 5 5 5 6 6 6 6 5 5 5 5 6 6 6 6 5 5 5 6 6 6 7 7 6 5 4 3 3 3 4 5 5 5 5 4 4 4 4 4 4 3 3 2 2 3 3 3 3 4 3 3 2 2 2 2
2 2 1 2 1 1 1 3 3 2 1 4 3 1 1 1 2 2 2 1 1 2 2 2 3 3 3 4 4 6 6 6 6 6 6 5 5 5 5 5 5 5 5 5 5 5 5 5 5 6 6 7 7 7 6 5 4 4 4 4 5 5 5 5 5 4 3 3 3 2 2 3 3 3 3 3 3 3 3 2 2 2 2 2 2
3 3 2 2 1 2 1 1 1 1 3 5 4 3 1 1 2 2 2 1 2 2 2 2 4 3 4 4 6 6 7 6 6 6 5 5 4 5 5 5 5 5 5 5 5 5 5 5 5 6 6 6 7 6 6 6 5 5 5 5 5 6 5 4 3 3 3 2 2 2 2 3 3 2 2 2 3 2 2 2 2 3 2 2 2
4 2 2 2 1 1 2 0 2 1 3 2 2 2 1 1 2 2 2 2 2 2 2 2 3 3 3 3 4 6 6 6 5 5 5 4 4 5 4 4 4 4 4 4 4 5 5 5 5 5 5 5 5 5 5 5 5 6 7 6 6 6 5 4 3 3 3 2 2 3 3 3 2 2 3 2 2 2 3 3 2 2 2 2 2
3 3 1 2 1 0 1 1 2 2 2 3 2 1 1 1 2 3 2 3 3 3 3 4 2 3 3 3 3 3 4 4 4 4 5 4 4 3 2 3 3 3 3 3 3 4 4 4 4 5 5 4 4 5 5 5 5 6 6 5 5 4 3 3 3 3 2 2 2 2 2 2 3 3 1 1 3 2 2 2 2 2 2 2 1
3 3 2 1 2 0 1 1 4 2 1 2 2 1 1 2 2 3 3 3 3 3 3 3 4 4 4 3 4 3 3 2 3 4 3 3 3 3 2 2 3 2 2 3 3 4 4 4 3 3 3 4 4 4 4 4 4 4 4 3 5 5 7 7 2 2 2 2 1 2 2 1 2 2 2 2 2 2 2 3 2 2 2 2 2
4 4 3 3 1 1 1 1 2 2 2 2 2 2 2 2 3 3 3 3 3 3 3 3 3 3 3 3 3 3 3 3 2 2 2 2 3 3 2 3 3 3 3 3 3 3 3 3 4 4 4 3 4 4 4 4 4 4 4 4 7 11 9 9 6 3 4 1 2 2 2 3 2 2 2 2 2 2 3 3 3 2 2 2 2
5 4 3 2 2 0 0 2 1 2 2 2 2 2 1 2 3 4 3 3 3 3 3 3 3 3 3 3 2 2 2 2 2 2 2 2 3 3 3 3 3 3 3 3 3 4 3 3 3 4 4 4 3 3 3 4 4 5 4 6 9 9 9 7 5 7 6 2 2 2 2 2 2 2 3 3 3 3 2 2 2 2 2 2 2
4 4 4 4 2 1 0 1 2 2 2 2 2 2 1 2 3 4 3 3 3 3 3 3 3 3 3 3 2 2 2 2 2 2 3 2 2 3 3 3 3 2 2 3 3 3 3 4 4 4 4 4 4 4 4 4 4 5 6 7 8 9 9 9 4 6 9 7 2 2 2 2 2 2 2 1 1 2 3 2 1 1 1 2 2
Wind_Direction
172 170 170 168 165 165 164 165 165 167 166 169 168 164 162 163 159 153 151 148 143 157 166 167 162 178 174 184 179 180 179 182 187 185 183 177 181 184 179 196 197 188 180 181 181 184 179 181 174 172 173 179 166 165 170 159 161 175 157 154 140 159 191 173 155 140 153 174 170 179 167 176 187 190 184 189 167 195 226 195 157 185 203 198 177
167 163 165 164 166 165 162 166 171 171 173 172 170 161 161 161 156 159 157 149 168 157 160 146 168 182 175 167 173 173 177 172 173 178 177 171 168 169 182 183 190 166 189 177 167 174 170 177 168 164 179 177 170 171 165 166 174 172 159 172 160 160 204 190 151 146 161 176 183 186 169 192 200 193 192 195 184 193 202 209 188 200 213 218 193
152 157 155 156 161 162 163 169 170 172 172 172 169 165 160 160 164 162 162 155 165 166 145 159 163 171 166 163 156 148 151 152 149 161 158 165 159 154 175 181 174 166 163 160 165 153 162 169 161 163 176 185 174 184 164 180 176 170 164 178 175 170 182 221 171 169 167 176 191 191 181 191 220 192 201 193 198 200 206 208 209 202 222 218 232
145 148 149 150 151 151 160 162 167 170 171 171 165 161 160 160 162 167 158 165 157 143 150 160 153 161 170 159 152 155 146 158 154 158 151 149 153 153 159 154 156 162 159 162 146 152 164 166 168 172 182 187 184 180 178 177 191 171 173 171 188 181 189 209 245 254 173 182 188 210 181 192 209 223 199 201 197 208 216 217 213 216 213 216 223
140 142 143 141 140 139 144 158 162 162 166 165 161 159 159 158 160 160 154 161 152 154 158 162 164 158 168 177 171 163 158 161 165 166 154 163 147 145 153 141 147 148 140 124 130 138 137 151 151 170 185 191 187 188 180 184 190 182 183 178 188 173 194 211 219 229 237 222 181 222 200 193 205 219 211 205 199 211 217 226 226 221 220 223 220
136 131 132 132 133 136 137 142 145 146 147 149 155 160 158 157 156 157 160 153 152 161 161 170 179 163 168 172 171 173 167 162 167 169 164 170 162 151 145 148 151 140 130 146 135 120 139 142 146 152 169 184 187 189 191 191 194 201 188 205 197 175 199 210 229 244 242 235 225 195 217 208 208 210 215 213 217 211 217 221 228 232 231 219 221
126 125 130 130 131 132 131 125 123 121 120 121 134 152 153 150 156 150 150 150 153 153 154 157 176 175 165 155 158 165 164 166 148 159 160 159 162 165 158 156 153 138 150 144 147 138 152 139 144 154 159 163 164 177 187 184 196 206 197 201 237 203 197 229 235 225 229 243 239 224 206 213 226 219 214 215 220 227 225 222 228 226 222 223 221
119 119 119 112 104 97 107 116 116 114 115 113 111 119 133 143 140 136 146 149 148 140 140 148 150 165 147 166 140 140 157 178 170 173 178 161 167 169 173 180 170 162 158 161 147 163 152 152 142 131 139 153 155 157 173 179 184 191 199 209 228 234 229 231 238 245 228 227 239 230 225 225 206 228 235 214 223 227 231 237 232 228 226 216 227
122 118 111 106 104 93 74 99 106 110 109 104 99 92 94 109 129 139 150 145 139 132 139 140 153 155 154 162 152 107 41 29 26 355 340 180 180 183 188 185 186 177 176 166 157 164 171 148 163 116 65 50 35 29 34 17 216 191 194 208 218 217 226 235 223 227 232 228 226 235 237 229 223 213 229 223 220 234 230 234 246 252 256 219 218
111 109 109 112 113 118 122 109 106 103 99 95 91 81 63 83 112 132 144 144 137 126 128 131 148 152 142 111 83 63 47 43 359 339 335 335 212 178 181 194 195 177 188 160 165 167 166 163 86 70 80 78 81 67 77 352 336 340 332 233 216 225 227 237 236 227 231 226 225 227 228 232 232 226 232 235 235 243 247 238 238 243 255 253 232
106 114 119 123 112 107 102 96 99 92 87 86 83 85 92 77 82 84 86 101 112 116 118 123 118 123 111 96 79 66 49 18 348 342 338 339 329 92 191 183 195 183 182 179 178 179 179 179 144 133 151 155 158 135 126 17 306 305 318 331 333 320 273 248 241 251 247 243 240 234 239 245 246 248 242 246 240 239 249 250 251 258 260 253 254
105 105 107 99 93 89 88 92 88 87 88 90 96 92 91 92 92 82 68 57 71 86 95 95 95 87 85 85 76 65 59 14 354 355 345 335 326 309 174 160 169 196 194 193 195 179 184 168 187 141 214 32 335 169 170 188 202 311 334 331 319 305 293 286 284 261 247 254 256 253 255 251 257 257 254 250 258 254 248 256 260 265 265 258 255
82 81 79 81 78 83 81 78 81 81 84 92 93 95 91 89 90 92 90 88 82 78 79 80 76 77 77 76 72 62 53 16 3 3 353 343 332 315 239 135 194 160 158 219 355 54 104 150 163 229 101 118 231 251 264 185 177 186 247 274 269 258 270 273 264 269 292 269 255 256 253 257 256 258 271 272 272 270 270 260 256 258 262 264 265
73 71 70 71 83 85 83 85 87 83 77 85 96 91 85 82 83 85 96 90 82 84 83 80 78 75 75 76 72 57 43 7 3 3 1 346 332 316 312 50 3 82 98 93 200 216 232 241 237 211 197 190 240 239 250 267 206 197 213 229 235 217 225 241 254 263 257 264 269 262 254 253 257 258 263 255 240 247 254 262 259 258 251 262 276
76 67 67 67 74 77 85 90 91 93 98 94 87 85 84 84 81 80 79 80 81 84 88 86 79 80 80 81 76 63 40 8 8 4 4 351 338 303 33 330 40 82 63 54 11 30 338 325 297 281 278 275 35 25 337 293 268 250 245 238 239 244 233 224 224 230 232 236 245 257 263 260 258 252 242 219 233 246 258 261 262 262 268 241 199
61 65 66 60 60 71 87 89 88 89 88 87 84 84 84 82 80 78 78 76 77 81 83 85 87 84 83 84 83 71 50 22 9 7 359 355 324 315 35 18 31 33 43 44 337 17 15 326 307 293 293 47 53 42 10 324 290 269 255 249 250 247 244 232 219 220 248 256 249 256 282 5 5 339 301 243 235 239 234 240 230 230 236 234 243
57 57 60 52 52 58 61 67 77 81 81 82 82 81 81 79 79 78 79 73 67 63 68 75 80 84 80 78 82 79 60 31 18 10 3 355 338 31 3 24 44 34 24 360 337 16 37 12 345 332 302 70 23 30 17 328 280 268 263 261 258 254 254 218 161 198 221 239 263 288 297 294 296 302 305 290 269 264 239 232 230 225 234 251 256
53 56 61 58 53 51 62 65 66 70 75 76 74 67 63 66 68 68 78 81 74 65 65 68 66 65 70 70 63 85 76 50 27 16 5 1 339 341 344 357 360 345 311 305 313 272 93 68 351 345 5 49 27 24 11 330 279 270 269 272 263 261 255 236 185 212 193 285 283 283 273 262 262 271 264 260 248 253 223 239 246 241 249 248 260
66 70 65 56 48 46 52 66 78 80 80 76 70 66 62 57 45 56 74 75 69 63 59 73 75 67 61 64 43 64 80 75 45 22 10 5 352 334 340 332 316 353 319 286 278 290 139 132 75 58 48 43 32 19 10 351 288 277 272 269 270 269 265 272 252 222 209 220 226 223 232 219 225 230 222 212 225 237 234 243 250 251 255 250 251
74 73 73 69 66 64 66 68 62 64 75 83 74 71 83 87 83 78 66 68 84 80 71 74 74 65 54 41 48 50 57 66 63 30 21 7 1 337 330 341 342 332 312 312 299 279 280 147 104 90 82 57 37 17 351 347 320 300 294 273 269 267 307 290 295 297 268 236 243 231 233 235 224 218 222 190 203 217 227 235 243 251 251 251 250
68 73 76 74 72 70 68 77 81 80 74 67 73 65 73 83 100 95 107 115 112 105 98 90 101 112 105 81 56 66 49 35 92 62 29 16 7 354 338 20 355 331 312 297 282 284 270 272 136 104 90 70 24 349 320 315 309 291 277 272 281 336 338 300 286 245 266 269 266 262 253 249 243 235 225 216 208 204 213 226 236 240 244 246 249
76 77 77 76 74 73 66 60 64 75 86 86 77 59 57 65 63 89 92 96 111 119 144 165 159 148 151 145 127 104 99 71 26 102 57 33 24 7 355 41 12 318 306 294 294 285 296 299 318 50 29 4 335 321 306 272 270 275 264 274 298 308 314 308 299 287 273 264 263 256 251 246 243 243 240 231 222 209 210 214 220 229 235 243 245
76 80 81 80 78 75 72 69 69 66 64 70 85 88 83 79 88 97 118 138 136 136 125 106 156 134 150 157 160 162 161 163 178 42 86 39 40 13 2 344 360 300 303 298 298 287 292 297 70 38 349 318 296 289 290 291 282 258 258 267 271 286 291 277 279 273 267 266 262 259 256 255 249 250 249 241 226 205 202 211 211 214 201 133 15
80 79 77 77 78 75 74 71 65 65 63 69 66 58 48 38 41 40 32 10 69 91 84 72 24 64 17 38 65 84 121 319 153 185 109 156 187 215 205 225 273 289 305 274 275 281 267 279 327 330 306 289 275 262 259 258 254 267 278 280 282 283 272 266 253 249 250 251 253 252 253 253 256 251 248 242 234 200 196 190 187 186 171 155 115
88 87 86 84 77 73 71 69 64 58 54 47 64 72 70 35 51 42 10 21 13 16 44 30 18 11 5 2 3 354 351 336 10 161 182 195 196 198 205 201 207 223 246 258 250 274 335 312 274 264 262 261 260 257 247 238 238 241 244 253 255 255 243 241 242 238 240 241 241 246 250 250 253 255 251 246 222 165 159 151 161 155 140 116 97
71 70 71 71 75 85 87 84 74 72 69 69 60 46 42 47 47 50 42 51 34 29 29 18 19 23 354 352 346 333 322 308 308 153 179 195 203 188 213 206 208 210 232 274 299 284 265 253 254 251 250 243 246 257 271 277 206 214 221 218 235 236 234 239 242 243 246 250 247 248 251 255 255 256 252 175 155 189 180 170 160 156 146 136 132
79 75 74 79 71 58 47 45 68 70 50 59 68 63 54 57 59 47 46 42 72 67 54 76 8 68 335 336 299 296 287 295 331 32 12 351 340 329 301 237 205 221 230 224 218 252 259 265 285 284 277 275 267 260 255 251 252 239 227 213 221 241 240 239 247 254 257 259 259 257 259 254 256 242 153 184 204 199 190 178 179 167 165 165 154
67 70 65 59 57 65 74 4 329 65 53 47 52 61 60 45 50 42 27 15 4 25 24 19 12 11 349 348 336 326 338 346 44 13 353 345 335 327 323 322 331 345 329 340 337 312 302 287 268 265 274 271 270 287 292 301 301 301 297 296 286 278 276 306 315 285 276 274 272 269 265 267 259 193 203 193 207 199 190 189 182 165 170 164 158
60 61 57 59 61 56 49 45 44 50 73 75 67 40 26 18 33 72 45 18 7 354 352 18 32 9 340 347 342 336 341 3 33 14 342 333 319 319 320 325 333 324 354 1 316 299 290 290 299 295 297 301 303 299 303 304 305 302 297 292 289 286 281 273 271 271 268 265 262 265 270 266 251 220 194 203 198 197 190 187 176 162 168 164 160
53 46 44 45 49 48 43 50 49 53 53 75 109 105 47 28 16 360 80 84 46 16 346 359 4 346 340 347 17 348 341 349 353 337 326 323 314 298 290 291 290 287 305 304 288 290 288 292 294 302 308 308 311 307 304 303 305 302 299 295 288 281 283 284 278 274 271 270 275 273 261 262 108 204 191 203 152 103 48 26 64 91 144 161 169
35 46 46 43 12 3 40 37 42 41 45 33 44 107 146 135 110 88 16 12 356 356 357 338 336 339 328 324 7 125 241 289 322 331 327 315 311 308 306 302 295 289 289 302 276 282 300 305 305 302 304 309 308 306 305 303 302 305 302 300 295 292 285 277 281 282 276 269 261 258 257 236 212 181 179 179 143 129 116 95 81 47 54 49 91
37 38 42 42 31 352 28 37 21 33 33 23 24 12 345 140 137 162 145 113 351 334 340 354 356 360 349 333 325 312 6 352 343 329 321 318 316 321 323 316 308 298 303 256 281 291 294 299 308 314 315 308 306 308 305 305 306 303 303 300 299 298 295 287 285 287 291 286 275 264 254 241 207 166 144 135 122 116 115 112 100 92 107 233 219
27 24 8 29 135 170 331 27 13 30 24 29 27 21 35 348 132 138 154 179 175 177 164 150 155 324 325 311 291 304 308 311 313 315 316 320 322 322 320 296 274 249 206 229 266 299 311 313 310 308 307 304 302 305 307 306 301 300 300 302 300 296 291 294 308 289 284 282 285 272 253 238 186 154 148 142 140 137 129 119 117 113 111 104 69
340 13 13 347 9 352 8 15 13 13 16 27 18 27 44 47 69 349 142 154 173 195 241 188 162 179 188 200 350 330 310 310 317 314 320 318 316 305 298 294 294 277 269 333 336 326 318 318 314 312 309 309 308 307 306 305 307 306 305 302 300 300 300 302 297 294 292 287 276 266 247 221 157 152 152 152 143 135 131 127 130 134 133 126 126
115 96 14 320 337 23 5 360 11 10 27 20 50 44 57 74 53 58 49 15 17 91 147 162 168 72 44 84 52 318 305 316 323 314 306 309 303 301 290 260 223 225 235 302 340 333 330 322 320 317 314 311 310 307 303 303 304 304 301 299 300 303 304 306 304 302 299 294 286 268 242 201 163 162 155 149 143 138 132 127 124 125 129 133 135
231 185 169 205 283 360 3 32 14 22 8 51 46 51 65 50 47 97 79 43 8 66 14 33 117 125 158 218 269 271 267 313 319 312 312 309 317 309 329 12 357 352 346 344 345 338 331 327 323 322 322 322 319 316 314 311 303 297 300 304 304 303 304 308 309 309 306 297 290 264 211 159 145 123 102 109 103 102 107 111 116 122 124 130 138
273 336 329 12 343 348 30 25 25 23 358 29 50 75 39 42 30 18 27 44 6 345 22 33 345 79 126 56 10 309 239 223 242 262 296 300 288 313 27 9 8 358 355 352 351 345 337 337 334 329 326 322 319 319 320 309 304 301 306 303 307 321 336 345 347 328 312 303 303 83 80 101 105 104 111 105 99 92 92 93 97 98 101 105 137
338 353 3 7 321 325 350 17 94 221 239 20 59 34 12 26 18 11 20 59 32 360 44 46 33 8 6 3 3 10 323 195 190 222 250 312 2 17 12 19 4 9 354 358 356 346 342 340 341 336 329 324 322 319 320 318 312 310 313 320 324 358 344 336 27 23 36 49 68 50 58 70 73 83 88 98 104 106 103 105 106 100 93 100 143
127 69 17 313 329 327 339 7 330 286 25 295 40 13 357 4 8 5 344 26 26 32 22 30 27 23 10 358 359 347 327 13 7 13 10 10 11 8 14 10 10 6 359 355 358 353 349 342 338 334 331 335 333 331 329 324 320 325 333 328 355 5 9 21 42 49 41 45 50 40 44 53 63 70 84 94 96 94 95 98 105 112 126 145 168
226 173 152 243 237 172 310 264 247 226 318 331 349 342 27 3 3 3 15 28 37 34 32 34 34 30 18 4 355 343 2 15 18 14 14 11 16 10 11 9 4 3 358 356 354 354 349 349 350 349 346 344 339 342 334 335 349 10 9 15 34 44 50 57 64 59 51 49 46 43 41 42 47 53 68 84 95 104 106 107 110 133 143 155 143
204 90 133 174 342 282 189 240 253 336 311 298 277 195 53 3 9 3 26 51 48 48 47 43 39 38 47 13 329 317 324 19 20 23 20 13 7 6 5 4 2 358 356 355 353 351 351 353 354 352 352 352 347 351 353 6 17 24 43 59 69 74 72 69 63 54 43 44 42 40 39 37 36 45 54 62 82 101 111 118 127 125 119 116 134
239 236 245 166 187 262 328 269 262 183 245 221 254 171 171 29 35 20 39 62 58 49 51 46 39 60 83 29 346 321 330 44 19 27 26 21 15 10 7 3 2 357 351 351 350 349 349 356 357 360 2 1 358 2 15 28 35 47 61 75 85 89 88 78 66 59 55 51 46 49 47 52 61 73 88 115 114 109 110 108 111 111 114 130 149
243 275 315 290 298 343 325 324 280 307 305 249 167 120 355 5 48 38 70 77 69 67 64 51 45 38 64 85 329 322 43 43 38 28 29 19 18 10 9 8 358 352 355 354 355 357 357 3 4 9 13 11 9 12 22 32 37 47 54 62 75 75 80 84 84 76 75 69 61 52 53 61 73 91 105 97 87 87 87 91 93 93 104 109 115
215 239 255 319 313 240 303 314 336 331 337 28 11 102 68 82 64 60 97 97 77 73 61 55 47 44 44 80 61 45 50 44 40 36 29 24 18 16 12 8 360 357 357 7 12 10 12 17 17 18 16 19 13 17 19 24 38 59 63 68 61 53 58 54 62 63 64 72 79 91 99 100 104 104 95 96 102 105 113 110 109 110 109 104 95
236 228 273 273 327 298 281 256 3 91 132 174 183 149 150 78 82 84 113 111 90 72 70 61 62 56 57 58 54 53 56 56 48 44 35 30 27 24 18 12 7 2 3 10 16 16 26 27 28 28 23 17 11 14 23 32 37 48 57 63 73 70 62 57 57 60 69 78 80 77 87 98 101 101 107 108 109 108 100 98 87 91 96 104 112
213 237 274 295 269 226 263 16 99 168 163 167 168 177 139 111 118 116 122 108 75 67 83 82 70 66 64 62 60 57 53 51 50 50 47 44 42 37 29 23 22 19 24 21 25 34 36 34 36 36 32 30 19 22 39 42 45 51 57 61 60 63 61 52 47 56 55 55 79 90 94 97 90 77 46 85 84 57 62 72 100 107 95 89 89
232 243 236 265 360 65 46 254 173 145 160 161 164 152 162 118 120 117 98 66 77 99 99 94 82 75 73 72 67 57 51 52 50 51 52 48 44 38 27 12 355 359 10 19 8 22 34 33 33 40 40 38 45 45 47 54 59 60 58 56 57 44 46 39 36 38 53 47 67 88 75 77 89 110 120 89 84 88 97 99 87 91 114 122 137
219 233 240 278 271 142 200 223 96 276 165 156 174 170 141 139 139 135 132 135 129 115 113 99 92 87 82 74 67 62 56 52 52 47 44 44 44 45 26 1 1 3 15 23 29 20 14 21 14 18 15 23 18 24 32 43 58 53 51 50 34 11 355 342 47 28 30 41 60 88 111 91 93 86 79 68 63 77 97 106 113 93 94 107 108
226 226 221 241 314 308 188 242 154 198 145 158 144 198 161 162 134 144 147 140 126 122 108 112 108 99 88 80 73 72 70 62 59 55 55 52 47 42 38 21 6 2 21 30 30 28 18 26 8 16 13 19 26 15 25 22 25 41 34 36 15 5 3 357 348 46 342 4 66 48 52 68 69 73 70 73 73 79 81 86 85 85 83 88 98
223 222 233 212 229 259 56 255 175 167 156 175 169 161 191 191 160 158 154 155 145 137 130 121 116 107 104 97 84 73 69 73 72 72 62 57 52 45 38 33 21 18 27 24 21 19 18 22 29 25 26 23 23 22 28 28 26 26 26 18 7 8 4 351 14 3 329 95 81 74 66 75 75 74 82 84 71 70 91 93 86 83 73 68 72
221 224 224 227 230 235 211 222 212 167 183 180 182 173 188 184 164 167 168 163 154 146 142 134 123 119 110 101 90 82 71 58 63 62 62 59 58 50 39 30 26 19 37 29 19 22 25 18 21 22 27 32 26 25 38 40 37 28 16 12 18 20 17 6 15 7 348 332 108 111 113 87 90 89 97 75 78 56 19 6 360 354 48 60 52